sat.trackr.live / text

‹ back to catalog

STARLINK-36735

NORAD 68976 · 2026-099AB

PAYLOAD ACTIVE UNKNOWN

§ Identity

Operator
Country
US
Launch date
2026-05-01
Launch site
AFETR
Launch vehicle
Mass (kg)
RCS (m²)

Purposes: comms

External: N2YO · Heavens-Above · Gunter

§ Orbital elements

Epoch: 2026-05-25T04:00:03.998880Z

Period
92.16 min
Inclination
53.1590°
Eccentricity
0.0000867
Mean motion
15.62447794 rev/d
Perigee alt
380.0 km
Apogee alt
381.2 km
Semi-major
6,758.7 km
B*
-2.6942e-2
RAAN
269.9715°
Arg perigee
80.3614°
Mean anomaly
260.1957°
Rev number
501

§ Raw data

STARLINK-367351 68976U 26099AB  26145.16671295 -.02165962  00000+0 -26942-1 0  99932 68976  53.1590 269.9715 0000867  80.3614 260.1957 15.62447794  5018

JSON: /api/v1/satellites/68976 · /tle

For live sub-satellite position, see the globe view (requires WebGL).

§ Visibility from observer

Set your observer location to see the next 7 days of passes ≥ 10°. The values pass through the URL so the page stays shareable.

No JS? Fill the form by hand. The geolocation button needs JavaScript.